Year,Month,Day,Hour,Minute,Value (Times are PST for temperature in C)
2016,05,27,00,01,10.80
2016,05,27,00,02,10.80
2016,05,27,00,03,10.80
2016,05,27,00,04,10.80
2016,05,27,00,06,10.80
2016,05,27,00,07,10.80
2016,05,27,00,09,10.80
2016,05,27,00,11,10.80
2016,05,27,00,12,10.80
2016,05,27,00,13,10.80
2016,05,27,00,14,10.80
2016,05,27,00,15,10.80
2016,05,27,00,16,10.80
2016,05,27,00,17,10.80
2016,05,27,00,18,10.80
2016,05,27,00,19,10.80
2016,05,27,00,20,10.80
2016,05,27,00,21,10.80
2016,05,27,00,22,10.80
2016,05,27,00,23,10.70
2016,05,27,00,24,10.70
2016,05,27,00,25,10.70
2016,05,27,00,26,10.70
2016,05,27,00,27,10.70
2016,05,27,00,28,10.70
2016,05,27,00,29,10.70
2016,05,27,00,30,10.70
2016,05,27,00,31,10.70
2016,05,27,00,32,10.70
2016,05,27,00,33,10.70
2016,05,27,00,34,10.70
2016,05,27,00,35,10.70
2016,05,27,00,36,10.70
2016,05,27,00,37,10.70
2016,05,27,00,38,10.70
2016,05,27,00,39,10.70
2016,05,27,00,40,10.70
2016,05,27,00,41,10.70
2016,05,27,00,42,10.70
2016,05,27,00,43,10.70
2016,05,27,00,44,10.70
2016,05,27,00,45,10.70
2016,05,27,00,46,10.70
2016,05,27,00,47,10.70
2016,05,27,00,48,10.70
2016,05,27,00,49,10.70
2016,05,27,00,50,10.70
2016,05,27,00,51,10.70
2016,05,27,00,52,10.70
2016,05,27,00,53,10.70
2016,05,27,00,54,10.70
2016,05,27,00,55,10.70
2016,05,27,00,56,10.70
2016,05,27,00,57,10.60
2016,05,27,00,58,10.60
2016,05,27,00,59,10.60
2016,05,27,01,00,10.60
2016,05,27,01,01,10.60
2016,05,27,01,02,10.60
2016,05,27,01,03,10.60
2016,05,27,01,04,10.60
2016,05,27,01,05,10.60
2016,05,27,01,06,10.60
2016,05,27,01,07,10.60
2016,05,27,01,08,10.60
2016,05,27,01,09,10.60
2016,05,27,01,10,10.60
2016,05,27,01,11,10.60
2016,05,27,01,12,10.60
2016,05,27,01,13,10.60
2016,05,27,01,14,10.60
2016,05,27,01,15,10.60
2016,05,27,01,16,10.60
2016,05,27,01,17,10.60
2016,05,27,01,18,10.60
2016,05,27,01,19,10.60
2016,05,27,01,20,10.60
2016,05,27,01,21,10.60
2016,05,27,01,22,10.60
2016,05,27,01,23,10.60
2016,05,27,01,24,10.60
2016,05,27,01,25,10.60
2016,05,27,01,26,10.60
2016,05,27,01,27,10.60
2016,05,27,01,28,10.60
2016,05,27,01,29,10.60
2016,05,27,01,30,10.60
2016,05,27,01,31,10.60
2016,05,27,01,32,10.60
2016,05,27,01,33,10.60
2016,05,27,01,34,10.60
2016,05,27,01,35,10.60
2016,05,27,01,36,10.60
2016,05,27,01,37,10.60
2016,05,27,01,38,10.60
2016,05,27,01,39,10.40
2016,05,27,01,40,10.40
2016,05,27,01,41,10.40
2016,05,27,01,42,10.40
2016,05,27,01,44,10.40
2016,05,27,01,46,10.40
2016,05,27,01,47,10.40
2016,05,27,01,48,10.40
2016,05,27,01,49,10.40
2016,05,27,01,51,10.40
2016,05,27,01,52,10.40
2016,05,27,01,53,10.40
2016,05,27,01,54,10.40
2016,05,27,01,56,10.40
2016,05,27,01,57,10.40
2016,05,27,01,58,10.40
2016,05,27,01,59,10.40
2016,05,27,02,01,10.40
2016,05,27,02,02,10.40
2016,05,27,02,03,10.40
2016,05,27,02,04,10.40
2016,05,27,02,06,10.40
2016,05,27,02,07,10.40
2016,05,27,02,08,10.40
2016,05,27,02,09,10.40
2016,05,27,02,11,10.40
2016,05,27,02,12,10.40
2016,05,27,02,13,10.40
2016,05,27,02,14,10.40
2016,05,27,02,16,10.40
2016,05,27,02,17,10.40
2016,05,27,02,18,10.40
2016,05,27,02,19,10.40
2016,05,27,02,21,10.40
2016,05,27,02,22,10.40
2016,05,27,02,23,10.40
2016,05,27,02,24,10.40
2016,05,27,02,26,10.40
2016,05,27,02,27,10.40
2016,05,27,02,28,10.40
2016,05,27,02,29,10.40
2016,05,27,02,31,10.40
2016,05,27,02,32,10.40
2016,05,27,02,33,10.40
2016,05,27,02,34,10.40
2016,05,27,02,36,10.40
2016,05,27,02,37,10.40
2016,05,27,02,38,10.40
2016,05,27,02,39,10.40
2016,05,27,02,41,10.40
2016,05,27,02,42,10.40
2016,05,27,02,43,10.40
2016,05,27,02,44,10.40
2016,05,27,02,46,10.40
2016,05,27,02,47,10.40
2016,05,27,02,48,10.40
2016,05,27,02,49,10.40
2016,05,27,02,51,10.40
2016,05,27,02,52,10.40
2016,05,27,02,53,10.40
2016,05,27,02,54,10.40
2016,05,27,02,55,10.40
2016,05,27,02,56,10.40
2016,05,27,02,57,10.40
2016,05,27,02,58,10.40
2016,05,27,02,59,10.40
2016,05,27,03,00,10.40
2016,05,27,03,01,10.40
2016,05,27,03,02,10.60
2016,05,27,03,03,10.60
2016,05,27,03,04,10.60
2016,05,27,03,06,10.60
2016,05,27,03,07,10.60
2016,05,27,03,08,10.60
2016,05,27,03,09,10.60
2016,05,27,03,10,10.60
2016,05,27,03,11,10.60
2016,05,27,03,12,10.60
2016,05,27,03,13,10.60
2016,05,27,03,14,10.60
2016,05,27,03,15,10.60
2016,05,27,03,16,10.60
2016,05,27,03,17,10.60
2016,05,27,03,18,10.60
2016,05,27,03,19,10.60
2016,05,27,03,20,10.60
2016,05,27,03,21,10.40
2016,05,27,03,22,10.40
2016,05,27,03,23,10.40
2016,05,27,03,24,10.40
2016,05,27,03,25,10.40
2016,05,27,03,26,10.40
2016,05,27,03,27,10.40
2016,05,27,03,28,10.40
2016,05,27,03,29,10.40
2016,05,27,03,30,10.40
2016,05,27,03,31,10.40
2016,05,27,03,32,10.40
2016,05,27,03,33,10.30
2016,05,27,03,34,10.30
2016,05,27,03,35,10.30
2016,05,27,03,36,10.30
2016,05,27,03,37,10.30
2016,05,27,03,38,10.20
2016,05,27,03,39,10.20
2016,05,27,03,40,10.20
2016,05,27,03,41,10.20
2016,05,27,03,42,10.20
2016,05,27,03,43,10.10
2016,05,27,03,44,10.10
2016,05,27,03,45,10.10
2016,05,27,03,46,10.10
2016,05,27,03,47,10.10
2016,05,27,03,48,10.10
2016,05,27,03,49,10.10
2016,05,27,03,50,10.10
2016,05,27,03,51,10.10
2016,05,27,03,52,10.10
2016,05,27,03,53,10.10
2016,05,27,03,54,10.10
2016,05,27,03,55,10.10
2016,05,27,03,56,10.10
2016,05,27,03,57,10.10
2016,05,27,03,58,10.10
2016,05,27,03,59,10.10
2016,05,27,04,00,9.90
2016,05,27,04,01,9.90
2016,05,27,04,02,9.90
2016,05,27,04,03,9.90
2016,05,27,04,04,9.90
2016,05,27,04,05,9.90
2016,05,27,04,06,9.90
2016,05,27,04,07,9.90
2016,05,27,04,08,9.90
2016,05,27,04,09,9.90
2016,05,27,04,10,9.90
2016,05,27,04,11,9.90
2016,05,27,04,12,9.90
2016,05,27,04,13,9.90
2016,05,27,04,14,9.90
2016,05,27,04,15,9.90
2016,05,27,04,16,9.90
2016,05,27,04,17,9.90
2016,05,27,04,18,9.90
2016,05,27,04,19,9.90
2016,05,27,04,20,9.90
2016,05,27,04,21,9.90
2016,05,27,04,22,9.90
2016,05,27,04,23,9.90
2016,05,27,04,24,9.90
2016,05,27,04,25,9.90
2016,05,27,04,27,9.90
2016,05,27,04,29,9.80
2016,05,27,04,31,9.80
2016,05,27,04,32,9.80
2016,05,27,04,33,9.80
2016,05,27,04,34,9.80
2016,05,27,04,36,9.80
2016,05,27,04,37,9.80
2016,05,27,04,38,9.80
2016,05,27,04,39,9.80
2016,05,27,04,41,9.80
2016,05,27,04,42,9.80
2016,05,27,04,43,9.80
2016,05,27,04,44,9.80
2016,05,27,04,46,9.80
2016,05,27,04,47,9.80
2016,05,27,04,48,9.80
2016,05,27,04,49,9.80
2016,05,27,04,51,9.80
2016,05,27,04,52,9.90
2016,05,27,04,53,9.90
2016,05,27,04,54,9.90
2016,05,27,04,56,9.90
2016,05,27,04,57,9.90
2016,05,27,04,58,9.90
2016,05,27,04,59,9.90
2016,05,27,05,01,9.90
2016,05,27,05,02,9.90
2016,05,27,05,03,9.90
2016,05,27,05,04,9.90
2016,05,27,05,06,9.90
2016,05,27,05,07,9.90
2016,05,27,05,08,10.10
2016,05,27,05,09,10.10
2016,05,27,05,11,10.10
2016,05,27,05,12,10.10
2016,05,27,05,13,10.10
2016,05,27,05,14,10.10
2016,05,27,05,16,10.10
2016,05,27,05,17,10.10
2016,05,27,05,18,10.10
2016,05,27,05,19,10.10
2016,05,27,05,21,10.10
2016,05,27,05,22,10.10
2016,05,27,05,23,10.10
2016,05,27,05,24,10.10
2016,05,27,05,26,10.10
2016,05,27,05,27,10.10
2016,05,27,05,28,10.10
2016,05,27,05,29,10.10
2016,05,27,05,31,10.10
2016,05,27,05,32,10.10
2016,05,27,05,33,10.10
2016,05,27,05,34,10.10
2016,05,27,05,36,10.10
2016,05,27,05,37,10.10
2016,05,27,05,38,10.10
2016,05,27,05,39,10.10
2016,05,27,05,41,10.10
2016,05,27,05,42,10.10
2016,05,27,05,43,10.10
2016,05,27,05,44,10.10
2016,05,27,05,45,10.10
2016,05,27,05,46,10.10
2016,05,27,05,47,10.10
2016,05,27,05,48,10.10
2016,05,27,05,49,10.10
2016,05,27,05,50,10.10
2016,05,27,05,51,10.10
2016,05,27,05,52,10.10
2016,05,27,05,53,10.10
2016,05,27,05,54,10.10
2016,05,27,05,55,10.10
2016,05,27,05,56,10.10
2016,05,27,05,57,10.10
2016,05,27,05,58,10.10
2016,05,27,05,59,10.10
2016,05,27,06,00,10.10
2016,05,27,06,01,10.10
2016,05,27,06,02,10.10
2016,05,27,06,03,10.10
2016,05,27,06,04,10.10
2016,05,27,06,06,10.10
2016,05,27,06,07,10.10
2016,05,27,06,08,10.10
2016,05,27,06,09,10.10
2016,05,27,06,10,10.10
2016,05,27,06,11,10.10
2016,05,27,06,12,10.10
2016,05,27,06,13,10.10
2016,05,27,06,14,10.10
2016,05,27,06,15,10.10
2016,05,27,06,16,10.20
2016,05,27,06,17,10.20
2016,05,27,06,18,10.20
2016,05,27,06,19,10.20
2016,05,27,06,20,10.20
2016,05,27,06,21,10.20
2016,05,27,06,22,10.20
2016,05,27,06,23,10.20
2016,05,27,06,24,10.20
2016,05,27,06,25,10.20
2016,05,27,06,26,10.20
2016,05,27,06,27,10.20
2016,05,27,06,28,10.20
2016,05,27,06,29,10.20
2016,05,27,06,30,10.20
2016,05,27,06,31,10.20
2016,05,27,06,32,10.20
2016,05,27,06,33,10.30
2016,05,27,06,34,10.30
2016,05,27,06,35,10.30
2016,05,27,06,36,10.30
2016,05,27,06,37,10.30
2016,05,27,06,38,10.30
2016,05,27,06,39,10.30
2016,05,27,06,40,10.30
2016,05,27,06,41,10.40
2016,05,27,06,42,10.40
2016,05,27,06,43,10.40
2016,05,27,06,44,10.40
2016,05,27,06,45,10.40
2016,05,27,06,46,10.40
2016,05,27,06,47,10.40
2016,05,27,06,48,10.40
2016,05,27,06,49,10.40
2016,05,27,06,50,10.40
2016,05,27,06,51,10.40
2016,05,27,06,52,10.40
2016,05,27,06,53,10.40
2016,05,27,06,54,10.40
2016,05,27,06,55,10.40
2016,05,27,06,56,10.40
2016,05,27,06,57,10.40
2016,05,27,06,58,10.40
2016,05,27,06,59,10.40
2016,05,27,07,00,10.40
2016,05,27,07,01,10.60
2016,05,27,07,02,10.60
2016,05,27,07,03,10.60
2016,05,27,07,04,10.60
2016,05,27,07,05,10.60
2016,05,27,07,06,10.60
2016,05,27,07,07,10.60
2016,05,27,07,08,10.60
2016,05,27,07,09,10.60
2016,05,27,07,10,10.60
2016,05,27,07,11,10.60
2016,05,27,07,12,10.60
2016,05,27,07,13,10.60
2016,05,27,07,14,10.60
2016,05,27,07,15,10.60
2016,05,27,07,16,10.60
2016,05,27,07,18,10.60
2016,05,27,07,19,10.60
2016,05,27,07,21,10.60
2016,05,27,07,22,10.60
2016,05,27,07,23,10.60
2016,05,27,07,24,10.60
2016,05,27,07,26,10.70
2016,05,27,07,27,10.70
2016,05,27,07,28,10.70
2016,05,27,07,29,10.70
2016,05,27,07,31,10.80
2016,05,27,07,32,10.80
2016,05,27,07,33,10.80
2016,05,27,07,34,10.80
2016,05,27,07,36,10.90
2016,05,27,07,37,10.90
2016,05,27,07,38,10.90
2016,05,27,07,39,10.90
2016,05,27,07,41,10.90
2016,05,27,07,42,10.90
2016,05,27,07,43,10.90
2016,05,27,07,44,10.90
2016,05,27,07,46,10.90
2016,05,27,07,47,11.10
2016,05,27,07,48,11.10
2016,05,27,07,49,11.10
2016,05,27,07,51,11.10
2016,05,27,07,52,11.10
2016,05,27,07,53,11.10
2016,05,27,07,54,11.10
2016,05,27,07,56,11.10
2016,05,27,07,57,11.10
2016,05,27,07,58,11.10
2016,05,27,07,59,11.10
2016,05,27,08,01,11.10
2016,05,27,08,02,11.10
2016,05,27,08,03,11.10
2016,05,27,08,04,11.10
2016,05,27,08,06,11.10
2016,05,27,08,07,11.20
2016,05,27,08,08,11.20
2016,05,27,08,09,11.20
2016,05,27,08,11,11.30
2016,05,27,08,12,11.30
2016,05,27,08,13,11.40
2016,05,27,08,14,11.40
2016,05,27,08,16,11.40
2016,05,27,08,17,11.40
2016,05,27,08,18,11.40
2016,05,27,08,19,11.40
2016,05,27,08,21,11.40
2016,05,27,08,22,11.40
2016,05,27,08,23,11.40
2016,05,27,08,24,11.40
2016,05,27,08,25,11.40
2016,05,27,08,26,11.40
2016,05,27,08,27,11.40
2016,05,27,08,28,11.40
2016,05,27,08,29,11.40
2016,05,27,08,31,11.40
2016,05,27,08,32,11.40
2016,05,27,08,33,11.60
2016,05,27,08,34,11.60
2016,05,27,08,36,11.60
2016,05,27,08,37,11.60
2016,05,27,08,38,11.60
2016,05,27,08,39,11.60
2016,05,27,08,40,11.60
2016,05,27,08,41,11.60
2016,05,27,08,42,11.60
2016,05,27,08,43,11.60
2016,05,27,08,44,11.60
2016,05,27,08,45,11.60
2016,05,27,08,46,11.60
2016,05,27,08,47,11.70
2016,05,27,08,48,11.70
2016,05,27,08,49,11.70
2016,05,27,08,50,11.70
2016,05,27,08,51,11.70
2016,05,27,08,52,11.70
2016,05,27,08,53,11.70
2016,05,27,08,54,11.70
2016,05,27,08,55,11.70
2016,05,27,08,56,11.80
2016,05,27,08,57,11.80
2016,05,27,08,58,11.80
2016,05,27,08,59,11.80
2016,05,27,09,00,11.80
2016,05,27,09,01,11.80
2016,05,27,09,02,11.80
2016,05,27,09,03,11.80
2016,05,27,09,04,11.80
2016,05,27,09,05,11.80
2016,05,27,09,06,11.80
2016,05,27,09,07,11.80
2016,05,27,09,08,11.80
2016,05,27,09,09,11.80
2016,05,27,09,10,11.80
2016,05,27,09,11,11.80
2016,05,27,09,12,11.80
2016,05,27,09,13,11.80
2016,05,27,09,14,11.90
2016,05,27,09,15,11.90
2016,05,27,09,16,11.90
2016,05,27,09,17,11.90
2016,05,27,09,18,12.00
2016,05,27,09,19,12.00
2016,05,27,09,20,12.00
2016,05,27,09,21,12.00
2016,05,27,09,22,12.10
2016,05,27,09,23,12.10
2016,05,27,09,24,12.20
2016,05,27,09,25,12.20
2016,05,27,09,26,12.30
2016,05,27,09,27,12.30
2016,05,27,09,28,12.30
2016,05,27,09,29,12.40
2016,05,27,09,30,12.60
2016,05,27,09,31,12.70
2016,05,27,09,32,12.70
2016,05,27,09,33,12.80
2016,05,27,09,34,12.80
2016,05,27,09,35,12.80
2016,05,27,09,36,12.90
2016,05,27,09,37,12.90
2016,05,27,09,38,13.00
2016,05,27,09,39,13.00
2016,05,27,09,40,13.10
2016,05,27,09,41,13.20
2016,05,27,09,42,13.20
2016,05,27,09,43,13.30
2016,05,27,09,44,13.40
2016,05,27,09,45,13.40
2016,05,27,09,46,13.50
2016,05,27,09,47,13.50
2016,05,27,09,48,13.50
2016,05,27,09,49,13.50
2016,05,27,09,50,13.50
2016,05,27,09,51,13.50
2016,05,27,09,52,13.50
2016,05,27,09,53,13.50
2016,05,27,09,54,13.50
2016,05,27,09,55,13.50
2016,05,27,09,56,13.50
2016,05,27,09,58,13.60
2016,05,27,09,59,13.60
2016,05,27,10,00,13.60
2016,05,27,10,02,13.70
2016,05,27,10,03,13.70
2016,05,27,10,04,13.80
2016,05,27,10,06,14.00
2016,05,27,10,07,14.00
2016,05,27,10,08,14.10
2016,05,27,10,09,14.10
2016,05,27,10,11,14.20
2016,05,27,10,12,14.20
2016,05,27,10,13,14.20
2016,05,27,10,14,14.20
2016,05,27,10,16,14.20
2016,05,27,10,17,14.30
2016,05,27,10,18,14.30
2016,05,27,10,19,14.30
2016,05,27,10,21,14.20
2016,05,27,10,22,14.20
2016,05,27,10,23,14.20
2016,05,27,10,24,14.20
2016,05,27,10,26,14.20
2016,05,27,10,27,14.20
2016,05,27,10,28,14.20
2016,05,27,10,29,14.20
2016,05,27,10,31,14.30
2016,05,27,10,32,14.40
2016,05,27,10,33,14.40
2016,05,27,10,34,14.50
2016,05,27,10,36,14.50
2016,05,27,10,37,14.50
2016,05,27,10,38,14.40
2016,05,27,10,39,14.40
2016,05,27,10,41,14.30
2016,05,27,10,42,14.20
2016,05,27,10,43,14.20
2016,05,27,10,44,14.20
2016,05,27,10,46,14.20
2016,05,27,10,47,14.20
2016,05,27,10,48,14.20
2016,05,27,10,49,14.20
2016,05,27,10,51,14.20
2016,05,27,10,52,14.20
2016,05,27,10,53,14.20
2016,05,27,10,54,14.20
2016,05,27,10,56,14.10
2016,05,27,10,57,14.10
2016,05,27,10,58,14.20
2016,05,27,10,59,14.20
2016,05,27,11,01,14.20
2016,05,27,11,02,14.20
2016,05,27,11,03,14.20
2016,05,27,11,04,14.20
2016,05,27,11,06,14.20
2016,05,27,11,07,14.30
2016,05,27,11,08,14.40
2016,05,27,11,09,14.40
2016,05,27,11,11,14.70
2016,05,27,11,12,14.80
2016,05,27,11,13,14.80
2016,05,27,11,14,15.00
2016,05,27,11,16,15.20
2016,05,27,11,17,15.30
2016,05,27,11,23,15.20
2016,05,27,11,24,15.20
2016,05,27,11,25,15.30
2016,05,27,11,26,15.30
2016,05,27,11,27,15.40
2016,05,27,11,28,15.40
2016,05,27,11,29,15.50
2016,05,27,11,30,15.60
2016,05,27,11,31,15.70
2016,05,27,11,32,15.80
2016,05,27,11,33,15.80
2016,05,27,11,34,15.90
2016,05,27,11,35,16.10
2016,05,27,11,36,16.10
2016,05,27,11,37,16.10
2016,05,27,11,38,16.10
2016,05,27,11,39,16.10
2016,05,27,11,40,16.10
2016,05,27,11,41,16.10
2016,05,27,11,42,16.20
2016,05,27,11,43,16.20
2016,05,27,11,44,16.20
2016,05,27,11,45,16.20
2016,05,27,11,46,16.20
2016,05,27,11,47,16.20
2016,05,27,11,48,16.10
2016,05,27,11,49,16.10
2016,05,27,11,50,16.10
2016,05,27,11,51,16.10
2016,05,27,11,52,16.20
2016,05,27,11,53,16.20
2016,05,27,11,54,16.30
2016,05,27,11,55,16.40
2016,05,27,11,56,16.40
2016,05,27,11,57,16.40
2016,05,27,11,58,16.60
2016,05,27,11,59,16.70
2016,05,27,12,00,16.70
2016,05,27,12,02,16.70
2016,05,27,12,03,16.80
2016,05,27,12,04,16.80
2016,05,27,12,06,16.80
2016,05,27,12,07,16.90
2016,05,27,12,08,17.00
2016,05,27,12,09,17.00
2016,05,27,12,11,16.90
2016,05,27,12,12,16.80
2016,05,27,12,13,16.70
2016,05,27,12,14,16.70
2016,05,27,12,16,16.70
2016,05,27,12,17,16.70
2016,05,27,12,18,16.70
2016,05,27,12,19,16.70
2016,05,27,12,21,16.70
2016,05,27,12,22,16.70
2016,05,27,12,23,16.60
2016,05,27,12,24,16.40
2016,05,27,12,26,16.40
2016,05,27,12,27,16.30
2016,05,27,12,28,16.20
2016,05,27,12,29,16.20
2016,05,27,12,31,16.10
2016,05,27,12,32,16.10
2016,05,27,12,33,15.90
2016,05,27,12,34,16.10
2016,05,27,12,36,16.10
2016,05,27,12,37,16.10
2016,05,27,12,38,16.20
2016,05,27,12,39,16.30
2016,05,27,12,41,16.40
2016,05,27,12,42,16.40
2016,05,27,12,43,16.30
2016,05,27,12,44,16.30
2016,05,27,12,46,16.30
2016,05,27,12,47,16.40
2016,05,27,12,48,16.40
2016,05,27,12,49,16.40
2016,05,27,12,51,16.40
2016,05,27,12,52,16.40
2016,05,27,12,53,16.40
2016,05,27,12,54,16.40
2016,05,27,12,56,16.70
2016,05,27,12,57,16.70
2016,05,27,12,58,16.70
2016,05,27,12,59,16.70
2016,05,27,13,01,16.80
2016,05,27,13,02,16.90
2016,05,27,13,03,16.90
2016,05,27,13,04,16.90
2016,05,27,13,06,16.90
2016,05,27,13,07,16.90
2016,05,27,13,08,16.80
2016,05,27,13,09,16.80
2016,05,27,13,11,16.70
2016,05,27,13,12,16.70
2016,05,27,13,13,16.60
2016,05,27,13,14,16.60
2016,05,27,13,15,16.60
2016,05,27,13,16,16.60
2016,05,27,13,17,16.40
2016,05,27,13,18,16.40
2016,05,27,13,19,16.40
2016,05,27,13,20,16.30
2016,05,27,13,21,16.20
2016,05,27,13,22,16.10
2016,05,27,13,23,16.10
2016,05,27,13,24,16.10
2016,05,27,13,25,16.10
2016,05,27,13,26,16.10
2016,05,27,13,27,16.10
2016,05,27,13,28,16.10
2016,05,27,13,29,16.10
2016,05,27,13,30,16.10
2016,05,27,13,31,16.10
2016,05,27,13,32,16.10
2016,05,27,13,33,16.10
2016,05,27,13,34,16.10
2016,05,27,13,35,15.90
2016,05,27,13,36,15.90
2016,05,27,13,37,15.90
2016,05,27,13,38,15.90
2016,05,27,13,39,15.90
2016,05,27,13,40,15.90
2016,05,27,13,41,16.10
2016,05,27,13,42,16.10
2016,05,27,13,43,16.10
2016,05,27,13,44,16.10
2016,05,27,13,45,16.10
2016,05,27,13,46,16.10
2016,05,27,13,47,16.20
2016,05,27,13,48,16.20
2016,05,27,13,49,16.20
2016,05,27,13,50,16.20
2016,05,27,13,51,16.20
2016,05,27,13,52,16.20
2016,05,27,13,53,16.20
2016,05,27,13,54,16.20
2016,05,27,13,55,16.10
2016,05,27,13,56,16.10
2016,05,27,13,57,16.10
2016,05,27,13,58,15.90
2016,05,27,13,59,15.90
2016,05,27,14,00,15.90
2016,05,27,14,01,15.80
2016,05,27,14,02,15.80
2016,05,27,14,03,15.80
2016,05,27,14,04,15.80
2016,05,27,14,05,15.80
2016,05,27,14,06,15.80
2016,05,27,14,08,15.80
2016,05,27,14,09,15.80
2016,05,27,14,11,15.80
2016,05,27,14,12,15.80
2016,05,27,14,13,15.80
2016,05,27,14,14,15.80
2016,05,27,14,16,15.80
2016,05,27,14,17,15.80
2016,05,27,14,18,15.80
2016,05,27,14,19,15.80
2016,05,27,14,21,15.90
2016,05,27,14,22,15.90
2016,05,27,14,23,16.10
2016,05,27,14,24,16.10
2016,05,27,14,26,16.10
2016,05,27,14,27,16.10
2016,05,27,14,28,16.10
2016,05,27,14,29,16.10
2016,05,27,14,31,16.20
2016,05,27,14,32,16.20
2016,05,27,14,33,16.30
2016,05,27,14,34,16.30
2016,05,27,14,36,16.40
2016,05,27,14,37,16.40
2016,05,27,14,38,16.40
2016,05,27,14,39,16.40
2016,05,27,14,41,16.40
2016,05,27,14,42,16.60
2016,05,27,14,43,16.60
2016,05,27,14,44,16.70
2016,05,27,14,46,16.70
2016,05,27,14,47,16.80
2016,05,27,14,48,16.80
2016,05,27,14,49,16.80
2016,05,27,14,51,17.00
2016,05,27,14,52,17.00
2016,05,27,14,53,17.10
2016,05,27,14,54,17.10
2016,05,27,14,56,17.20
2016,05,27,14,57,17.20
2016,05,27,14,58,17.20
2016,05,27,14,59,17.20
2016,05,27,15,01,17.20
2016,05,27,15,02,17.20
2016,05,27,15,03,17.30
2016,05,27,15,04,17.30
2016,05,27,15,06,17.30
2016,05,27,15,07,17.30
2016,05,27,15,08,17.30
2016,05,27,15,09,17.30
2016,05,27,15,11,17.30
2016,05,27,15,12,17.30
2016,05,27,15,13,17.30
2016,05,27,15,14,17.30
2016,05,27,15,16,17.30
2016,05,27,15,17,17.30
2016,05,27,15,18,17.30
2016,05,27,15,19,17.30
2016,05,27,15,21,17.30
2016,05,27,15,22,17.20
2016,05,27,15,23,17.20
2016,05,27,15,24,17.10
2016,05,27,15,25,17.10
2016,05,27,15,26,17.10
2016,05,27,15,27,17.10
2016,05,27,15,28,17.10
2016,05,27,15,29,17.10
2016,05,27,15,30,17.10
2016,05,27,15,31,17.10
2016,05,27,15,32,17.10
2016,05,27,15,33,17.10
2016,05,27,15,34,17.00
2016,05,27,15,35,17.00
2016,05,27,15,36,17.00
2016,05,27,15,37,17.00
2016,05,27,15,38,16.90
2016,05,27,15,39,16.90
2016,05,27,15,40,16.90
2016,05,27,15,41,16.90
2016,05,27,15,42,16.80
2016,05,27,15,43,16.80
2016,05,27,15,44,16.80
2016,05,27,15,45,16.70
2016,05,27,15,46,16.70
2016,05,27,15,47,16.70
2016,05,27,15,48,16.70
2016,05,27,15,49,16.70
2016,05,27,15,50,16.70
2016,05,27,15,51,16.60
2016,05,27,15,52,16.60
2016,05,27,15,53,16.60
2016,05,27,15,54,16.40
2016,05,27,15,55,16.40
2016,05,27,15,56,16.40
2016,05,27,15,57,16.40
2016,05,27,15,58,16.40
2016,05,27,15,59,16.40
2016,05,27,16,00,16.40
2016,05,27,16,01,16.40
2016,05,27,16,02,16.40
2016,05,27,16,03,16.40
2016,05,27,16,04,16.40
2016,05,27,16,05,16.40
2016,05,27,16,06,16.40
2016,05,27,16,07,16.40
2016,05,27,16,08,16.40
2016,05,27,16,09,16.60
2016,05,27,16,10,16.60
2016,05,27,16,11,16.60
2016,05,27,16,12,16.40
2016,05,27,16,13,16.40
2016,05,27,16,14,16.40
2016,05,27,16,15,16.40
2016,05,27,16,16,16.30
2016,05,27,16,17,16.30
2016,05,27,16,18,16.30
2016,05,27,16,19,16.30
2016,05,27,16,20,16.30
2016,05,27,16,21,16.30
2016,05,27,16,22,16.30
2016,05,27,16,23,16.30
2016,05,27,16,24,16.30
2016,05,27,16,25,16.30
2016,05,27,16,26,16.40
2016,05,27,16,27,16.40
2016,05,27,16,28,16.40
2016,05,27,16,29,16.40
2016,05,27,16,30,16.40
2016,05,27,16,31,16.40
2016,05,27,16,32,16.60
2016,05,27,16,33,16.60
2016,05,27,16,34,16.70
2016,05,27,16,35,16.70
2016,05,27,16,36,16.70
2016,05,27,16,37,16.70
2016,05,27,16,38,16.70
2016,05,27,16,39,16.70
2016,05,27,16,40,16.70
2016,05,27,16,41,16.70
2016,05,27,16,42,16.70
2016,05,27,16,43,16.60
2016,05,27,16,44,16.60
2016,05,27,16,45,16.40
2016,05,27,16,46,16.40
2016,05,27,16,47,16.40
2016,05,27,16,49,16.30
2016,05,27,16,50,16.20
2016,05,27,16,52,16.10
2016,05,27,16,53,16.10
2016,05,27,16,54,16.10
2016,05,27,16,56,16.20
2016,05,27,16,57,16.10
2016,05,27,16,58,16.10
2016,05,27,16,59,16.10
2016,05,27,17,01,16.10
2016,05,27,17,02,16.20
2016,05,27,17,03,16.20
2016,05,27,17,04,16.30
2016,05,27,17,06,16.30
2016,05,27,17,07,16.30
2016,05,27,17,08,16.30
2016,05,27,17,09,16.20
2016,05,27,17,11,16.10
2016,05,27,17,12,16.10
2016,05,27,17,13,16.10
2016,05,27,17,14,16.10
2016,05,27,17,16,16.10
2016,05,27,17,17,16.10
2016,05,27,17,18,16.10
2016,05,27,17,19,16.20
2016,05,27,17,21,16.10
2016,05,27,17,22,16.10
2016,05,27,17,23,16.10
2016,05,27,17,24,16.10
2016,05,27,17,26,16.10
2016,05,27,17,27,16.10
2016,05,27,17,28,16.10
2016,05,27,17,29,15.90
2016,05,27,17,31,15.80
2016,05,27,17,32,15.80
2016,05,27,17,33,15.80
2016,05,27,17,34,15.80
2016,05,27,17,36,15.80
2016,05,27,17,37,15.70
2016,05,27,17,38,15.70
2016,05,27,17,39,15.70
2016,05,27,17,41,15.70
2016,05,27,17,42,15.60
2016,05,27,17,43,15.60
2016,05,27,17,44,15.50
2016,05,27,17,46,15.40
2016,05,27,17,47,15.40
2016,05,27,17,48,15.40
2016,05,27,17,49,15.40
2016,05,27,17,51,15.40
2016,05,27,17,52,15.40
2016,05,27,17,53,15.30
2016,05,27,17,54,15.30
2016,05,27,17,56,15.30
2016,05,27,17,57,15.20
2016,05,27,17,58,15.10
2016,05,27,17,59,15.10
2016,05,27,18,01,15.00
2016,05,27,18,02,14.90
2016,05,27,18,03,14.90
2016,05,27,18,04,14.90
2016,05,27,18,06,14.80
2016,05,27,18,07,14.80
2016,05,27,18,08,14.80
2016,05,27,18,09,14.80
2016,05,27,18,11,14.70
2016,05,27,18,12,14.70
2016,05,27,18,13,14.70
2016,05,27,18,14,14.70
2016,05,27,18,15,14.80
2016,05,27,18,16,14.80
2016,05,27,18,17,14.80
2016,05,27,18,18,14.80
2016,05,27,18,19,14.80
2016,05,27,18,20,14.80
2016,05,27,18,21,14.80
2016,05,27,18,22,14.90
2016,05,27,18,23,14.90
2016,05,27,18,24,14.90
2016,05,27,18,25,14.90
2016,05,27,18,26,14.90
2016,05,27,18,27,14.80
2016,05,27,18,28,14.80
2016,05,27,18,29,14.80
2016,05,27,18,30,14.80
2016,05,27,18,31,14.80
2016,05,27,18,32,14.70
2016,05,27,18,33,14.70
2016,05,27,18,34,14.70
2016,05,27,18,35,14.70
2016,05,27,18,36,14.60
2016,05,27,18,37,14.60
2016,05,27,18,38,14.60
2016,05,27,18,39,14.60
2016,05,27,18,40,14.60
2016,05,27,18,41,14.50
2016,05,27,18,42,14.50
2016,05,27,18,43,14.50
2016,05,27,18,44,14.40
2016,05,27,18,45,14.40
2016,05,27,18,46,14.40
2016,05,27,18,47,14.30
2016,05,27,18,48,14.30
2016,05,27,18,49,14.20
2016,05,27,18,50,14.20
2016,05,27,18,51,14.20
2016,05,27,18,52,14.20
2016,05,27,18,53,14.10
2016,05,27,18,54,14.10
2016,05,27,18,55,14.00
2016,05,27,18,56,14.00
2016,05,27,18,57,13.90
2016,05,27,18,58,13.90
2016,05,27,18,59,13.80
2016,05,27,19,00,13.80
2016,05,27,19,01,13.70
2016,05,27,19,02,13.70
2016,05,27,19,03,13.70
2016,05,27,19,04,13.70
2016,05,27,19,05,13.70
2016,05,27,19,06,13.70
2016,05,27,19,07,13.60
2016,05,27,19,08,13.60
2016,05,27,19,09,13.60
2016,05,27,19,10,13.50
2016,05,27,19,11,13.50
2016,05,27,19,12,13.40
2016,05,27,19,13,13.40
2016,05,27,19,14,13.40
2016,05,27,19,15,13.30
2016,05,27,19,16,13.30
2016,05,27,19,17,13.30
2016,05,27,19,18,13.30
2016,05,27,19,19,13.30
2016,05,27,19,20,13.30
2016,05,27,19,21,13.30
2016,05,27,19,22,13.30
2016,05,27,19,23,13.30
2016,05,27,19,24,13.30
2016,05,27,19,25,13.30
2016,05,27,19,26,13.30